Wind_Speed
16 15 13 13 13 13 14 15 17 19 21 22 23 23 23 24 24 25 25 27 28 30 30 30 29 29 29 29 29 29 29 29 30 31 32 33 34 35 36 37 38 38 38 38
16 14 13 12 12 12 13 15 18 19 21 22 22 21 21 21 22 23 25 27 28 30 30 30 30 29 28 27 26 27 27 27 27 27 29 30 31 33 34 35 36 36 37 37
15 13 12 11 11 11 13 15 17 18 19 20 20 20 19 20 22 24 25 27 29 30 30 30 29 28 26 26 25 25 24 24 24 24 25 26 28 29 31 32 33 34 35 36
14 12 11 10 10 11 12 14 16 17 18 19 19 18 19 21 22 24 26 28 30 31 31 30 29 28 26 24 23 22 22 22 22 22 22 22 23 24 25 27 29 31 33 34
12 11 10 9 9 10 11 13 14 15 16 17 17 17 18 21 23 25 27 29 30 31 31 30 29 28 26 24 22 21 21 21 20 20 19 19 19 20 21 23 25 27 29 31
12 11 9 8 8 8 9 11 12 14 14 14 15 16 18 20 23 25 27 28 30 30 30 30 29 27 26 25 23 21 21 20 19 19 18 17 17 17 18 19 21 23 25 27
12 10 8 7 7 7 8 9 10 12 13 13 14 16 18 20 22 24 26 27 29 29 29 29 28 27 26 26 24 22 21 20 20 19 18 16 15 14 14 15 17 18 20 22
10 9 7 6 6 6 6 7 9 11 12 13 14 16 17 19 20 22 24 26 27 28 28 28 27 27 27 26 25 24 22 21 20 19 18 16 15 13 12 11 12 14 16 18
8 8 6 5 5 4 5 6 8 10 11 12 13 14 16 18 19 21 23 25 26 28 28 28 28 27 27 26 26 25 23 22 21 20 19 16 15 13 12 10 9 10 12 14
9 8 6 4 3 3 4 6 7 9 11 12 12 14 16 18 19 21 23 25 26 27 28 28 28 27 27 27 27 26 25 24 23 21 19 17 15 14 12 10 8 8 9 10
9 7 5 3 2 2 3 5 6 8 10 11 12 14 16 17 19 21 23 25 26 26 27 28 28 28 27 27 27 27 26 25 24 23 22 20 17 16 14 11 8 7 7 8
8 6 5 3 2 1 2 4 6 7 9 10 12 14 16 17 19 21 23 24 25 26 27 27 28 28 28 27 27 27 27 26 26 25 24 22 20 18 15 13 10 8 6 6
8 6 5 3 2 1 1 3 5 6 8 10 11 13 15 17 19 21 22 23 25 25 26 27 28 28 28 28 27 27 27 27 27 26 25 24 22 20 17 15 13 10 7 5
8 6 5 4 2 1 1 2 4 5 7 9 11 13 15 16 18 20 21 22 23 24 25 26 27 28 29 28 27 27 28 28 28 28 27 25 24 22 19 17 15 13 9 7
7 6 5 4 3 2 1 1 3 5 6 8 10 12 14 15 17 19 21 22 22 24 25 26 27 28 29 29 28 28 28 28 28 29 28 27 25 24 22 20 18 15 12 9
7 5 4 3 3 2 2 1 3 4 6 7 9 11 13 15 16 18 20 21 22 23 24 25 26 27 28 28 29 29 28 28 28 28 28 28 27 25 24 21 19 17 14 12
6 5 4 3 4 3 3 3 3 4 5 7 8 10 12 14 16 17 19 20 21 22 23 24 25 26 26 27 28 28 29 28 28 28 28 28 28 26 25 23 21 20 17 15
6 5 4 4 4 4 4 4 4 4 5 7 8 10 12 13 15 16 18 19 20 21 22 23 24 25 26 26 27 27 28 28 28 28 28 28 27 27 26 25 23 22 20 18
7 6 5 5 5 5 5 5 5 6 6 7 8 9 11 13 14 15 17 18 19 20 21 22 23 24 25 26 26 26 27 28 28 28 28 28 27 27 26 26 25 24 22 20
8 7 6 6 6 6 6 6 6 6 7 7 8 9 11 12 13 15 16 17 18 19 20 20 22 23 24 24 25 25 26 27 28 28 28 28 28 27 26 26 25 24 23 21
9 9 8 7 7 8 8 7 7 7 7 8 9 10 11 12 13 14 15 16 17 17 18 19 20 21 22 23 24 24 24 25 26 27 27 27 27 27 26 26 25 24 23 22
10 10 10 9 10 10 9 9 9 9 9 9 9 10 11 12 12 13 14 15 16 17 18 18 19 20 21 22 22 23 23 24 24 25 26 27 27 26 26 26 25 25 24 23
12 12 12 12 12 12 11 11 11 11 11 11 11 11 12 12 13 13 14 14 15 16 17 17 18 18 19 20 21 21 22 22 23 23 24 25 25 25 25 25 25 25 24 23
15 15 15 14 14 14 14 13 13 13 13 13 13 13 13 13 13 13 14 14 15 15 16 16 17 17 18 18 19 19 20 20 21 21 22 23 23 24 24 24 24 24 23 23
18 18 18 17 17 17 17 16 16 16 16 16 15 15 15 15 15 15 15 15 15 15 15 16 16 16 17 17 18 18 18 19 19 20 20 21 21 22 22 22 22 23 23 22
21 21 20 20 19 19 19 19 19 19 19 19 18 18 17 17 16 16 16 16 16 16 16 16 16 16 16 16 16 17 17 17 18 18 19 19 20 20 20 20 20 20 20 20
Wind_Direction
245 255 266 276 283 292 301 310 319 323 324 327 330 331 332 333 334 334 335 335 334 332 330 327 323 318 312 308 305 302 298 293 288 283 278 275 272 268 264 259 256 253 251 249
245 254 265 273 285 296 306 313 318 322 325 328 332 333 335 337 339 341 342 341 339 338 336 333 329 324 320 315 310 307 303 299 293 288 283 278 273 269 265 261 256 253 251 248
244 255 265 275 288 298 307 313 318 323 326 330 334 336 340 343 347 349 348 347 346 345 343 340 336 332 327 323 319 314 310 307 301 295 290 283 277 272 267 262 257 253 251 248
238 247 259 273 284 295 307 314 319 324 329 332 336 340 347 352 355 356 353 351 351 349 347 344 342 339 335 331 328 324 320 316 311 305 299 291 283 277 269 262 257 253 250 248
234 243 257 270 282 295 308 315 320 325 331 333 340 347 356 0 0 358 356 354 353 351 349 349 347 347 345 341 336 332 328 324 320 315 309 301 292 283 274 265 259 255 251 248
232 241 254 265 279 297 312 320 324 330 334 338 347 354 1 2 0 359 359 357 356 355 355 354 354 353 351 349 346 341 338 335 332 326 321 312 301 292 279 269 261 257 251 246
227 238 246 258 278 301 315 323 329 335 340 349 357 2 4 3 2 1 360 359 359 359 359 359 359 359 358 356 354 351 347 345 341 338 335 328 317 306 292 277 265 257 251 245
223 236 239 253 281 301 318 329 337 343 350 359 5 7 7 6 4 3 2 2 2 2 1 2 2 3 3 3 2 360 358 354 351 348 345 340 335 326 312 294 275 262 252 245
202 218 231 251 275 300 327 341 346 352 1 7 10 11 11 8 6 6 6 5 6 5 6 7 7 7 7 8 7 5 4 2 360 357 353 350 346 338 327 314 291 270 258 249
184 199 218 235 264 306 338 350 356 1 6 11 13 13 13 12 11 11 10 9 8 8 9 10 10 10 11 11 11 11 10 8 7 6 4 0 355 351 345 335 312 282 269 257
183 194 204 219 262 317 347 358 5 12 13 14 16 17 14 14 13 13 12 11 10 10 11 12 13 14 14 14 14 15 15 14 14 13 11 9 6 1 357 351 339 309 286 271
184 188 193 212 234 299 3 14 15 17 17 18 18 17 15 15 15 14 13 12 11 11 12 13 14 15 16 16 16 16 17 17 17 16 16 15 14 11 9 5 359 344 318 288
185 182 188 202 217 250 8 21 21 21 18 17 16 16 15 15 16 14 13 13 13 14 15 16 17 17 18 17 18 19 20 20 19 18 18 19 19 18 18 15 13 6 354 332
183 178 183 187 198 234 322 6 16 19 19 16 15 15 14 14 14 14 13 14 15 16 16 18 19 19 20 20 21 21 21 22 22 22 21 21 20 20 19 18 16 15 12 0
182 180 182 188 201 224 255 343 6 11 15 14 13 13 14 14 14 14 14 15 15 16 17 18 20 20 21 22 23 23 22 23 24 24 24 23 22 22 21 21 21 19 15 9
182 184 192 201 216 233 253 312 346 358 4 9 9 10 12 13 13 13 14 14 15 16 17 18 19 20 21 22 23 23 23 24 24 25 25 25 24 24 24 25 25 24 20 16
186 193 204 217 234 249 270 296 318 338 351 357 1 3 5 7 9 11 12 12 12 14 15 17 17 18 18 20 21 22 22 23 24 25 25 25 26 26 27 28 28 28 27 25
196 203 212 224 241 261 272 284 302 319 334 344 350 353 355 358 2 6 8 9 11 12 13 14 15 16 18 18 19 20 22 22 23 24 24 24 26 28 29 29 29 29 28 28
211 220 228 234 246 260 271 284 295 308 320 330 339 344 348 351 356 360 2 5 7 9 11 12 14 15 17 18 19 20 21 22 23 24 24 25 27 28 28 29 30 30 29 30
226 234 241 245 251 260 270 280 291 302 311 320 326 332 338 344 349 354 355 358 1 5 7 10 12 14 15 17 18 19 21 21 22 23 24 25 27 28 28 29 30 31 32 33
238 243 249 254 258 262 267 275 284 293 305 314 321 326 331 336 342 346 350 352 356 359 2 5 8 10 12 14 16 18 19 20 21 22 24 25 26 28 29 30 30 31 33 34
246 249 253 257 261 263 266 273 279 288 297 307 313 319 324 328 332 337 341 345 349 353 355 359 2 6 8 10 12 14 16 18 19 21 22 24 25 27 29 31 32 33 33 35
248 252 255 258 261 264 268 273 278 284 290 297 303 309 314 318 322 327 330 335 340 344 348 351 354 358 1 4 6 9 12 14 16 18 20 22 24 26 28 30 31 33 34 36
250 252 254 256 258 263 267 272 275 280 285 289 294 300 305 310 313 317 321 324 329 334 338 341 345 349 353 356 359 2 5 8 10 13 16 18 21 24 26 28 30 32 34 36
253 254 256 259 262 265 267 271 274 277 280 284 288 293 297 301 305 308 312 315 319 323 326 331 335 339 342 346 350 353 357 0 3 6 9 12 15 19 22 25 28 30 33 35
256 258 259 261 264 266 268 272 275 277 279 281 284 287 290 293 296 299 303 306 310 312 315 319 323 327 331 334 338 342 347 351 355 359 3 7 9 13 17 22 25 28 30 33
Height
5922 5923 5923 5923 5923 5922 5920 5918 5915 5913 5910 5907 5903 5900 5896 5891 5887 5882 5877 5871 5865 5859 5853 5847 5841 5835 5830 5826 5822 5818 5814 5810 5808 5805 5804 5803 5802 5802 5803 5804 5806 5809 5812 5815
5920 5921 5921 5920 5920 5918 5917 5915 5913 5910 5907 5904 5901 5898 5894 5889 5885 5880 5874 5868 5862 5855 5848 5842 5835 5829 5824 5820 5815 5811 5807 5803 5800 5797 5795 5793 5792 5792 5792 5793 5795 5798 5801 5804
5917 5919 5918 5918 5917 5916 5914 5913 5910 5908 5905 5901 5899 5895 5891 5887 5882 5877 5871 5865 5858 5851 5844 5838 5831 5825 5820 5814 5809 5805 5801 5797 5793 5790 5787 5785 5784 5783 5783 5783 5785 5787 5790 5793
5915 5916 5916 5916 5915 5914 5912 5911 5908 5906 5903 5899 5897 5894 5889 5884 5879 5874 5868 5862 5855 5848 5842 5835 5828 5822 5816 5810 5805 5800 5796 5792 5788 5784 5781 5778 5776 5775 5774 5774 5775 5777 5780 5783
5913 5913 5914 5913 5913 5912 5911 5909 5907 5904 5901 5898 5895 5891 5888 5882 5877 5872 5866 5859 5853 5847 5840 5833 5826 5819 5813 5807 5802 5797 5792 5787 5783 5779 5776 5773 5770 5768 5767 5767 5767 5769 5771 5773
5910 5911 5912 5911 5911 5910 5909 5908 5905 5903 5900 5898 5894 5889 5885 5880 5875 5870 5864 5858 5852 5845 5838 5831 5824 5818 5811 5805 5799 5794 5789 5785 5780 5776 5772 5768 5765 5763 5761 5760 5760 5761 5763 5765
5908 5909 5910 5909 5909 5908 5908 5907 5905 5902 5899 5896 5892 5888 5884 5879 5874 5869 5864 5858 5851 5844 5838 5831 5824 5817 5811 5804 5798 5793 5788 5783 5778 5773 5769 5765 5761 5758 5756 5755 5755 5755 5756 5757
5906 5908 5908 5908 5908 5907 5906 5905 5904 5902 5898 5895 5891 5887 5884 5879 5874 5869 5863 5857 5851 5844 5838 5831 5824 5818 5811 5804 5798 5792 5787 5782 5777 5772 5767 5763 5759 5756 5754 5752 5751 5750 5751 5752
5905 5906 5907 5907 5906 5905 5904 5903 5902 5900 5897 5894 5891 5887 5883 5878 5874 5869 5863 5857 5851 5845 5838 5831 5825 5818 5811 5805 5799 5793 5787 5782 5776 5771 5766 5762 5758 5755 5752 5749 5748 5747 5747 5747
5903 5905 5905 5905 5905 5904 5904 5902 5901 5899 5896 5893 5891 5887 5884 5878 5874 5869 5863 5858 5852 5846 5839 5832 5826 5819 5813 5806 5800 5794 5788 5782 5777 5771 5766 5762 5757 5754 5750 5748 5746 5745 5744 5744
5902 5903 5904 5904 5904 5903 5903 5902 5900 5898 5895 5893 5890 5889 5883 5879 5874 5869 5864 5858 5853 5847 5840 5834 5827 5821 5814 5808 5802 5796 5789 5784 5778 5773 5767 5762 5758 5754 5750 5747 5745 5743 5742 5741
5900 5902 5902 5903 5903 5903 5902 5901 5899 5898 5896 5892 5890 5890 5883 5879 5874 5869 5864 5859 5853 5848 5842 5835 5829 5822 5816 5810 5804 5798 5791 5786 5780 5774 5769 5764 5759 5754 5750 5747 5744 5742 5740 5739
5899 5901 5902 5903 5904 5903 5901 5900 5899 5897 5895 5892 5890 5890 5883 5879 5874 5870 5865 5860 5855 5849 5843 5837 5831 5825 5818 5812 5806 5800 5794 5788 5782 5776 5771 5765 5760 5756 5751 5748 5744 5742 5739 5738
5899 5900 5902 5903 5902 5901 5900 5900 5898 5897 5895 5892 5890 5887 5883 5879 5875 5870 5866 5861 5856 5851 5845 5839 5833 5827 5821 5815 5809 5803 5797 5791 5785 5779 5773 5768 5763 5758 5753 5749 5745 5742 5740 5738
5898 5899 5900 5900 5901 5900 5900 5899 5898 5896 5894 5892 5890 5887 5884 5880 5876 5871 5867 5862 5857 5852 5847 5841 5836 5830 5824 5818 5811 5806 5800 5794 5788 5782 5776 5771 5765 5760 5755 5751 5747 5743 5740 5738
5897 5898 5899 5900 5900 5899 5899 5898 5897 5895 5894 5892 5889 5887 5884 5880 5876 5872 5868 5863 5859 5854 5849 5844 5838 5832 5827 5821 5815 5809 5803 5797 5791 5786 5780 5774 5768 5763 5758 5753 5749 5745 5742 5739
5896 5897 5898 5899 5898 5898 5898 5897 5896 5895 5893 5891 5889 5887 5883 5880 5876 5872 5868 5864 5860 5855 5851 5845 5840 5835 5829 5824 5818 5812 5807 5801 5795 5789 5783 5778 5772 5766 5761 5756 5751 5747 5744 5740
5896 5896 5897 5897 5898 5898 5899 5896 5895 5894 5892 5890 5888 5886 5883 5880 5877 5873 5869 5865 5861 5857 5852 5847 5842 5837 5832 5826 5821 5815 5810 5804 5798 5793 5787 5781 5775 5770 5765 5760 5755 5750 5746 5743
5894 5895 5896 5896 5896 5896 5896 5895 5894 5893 5891 5889 5887 5885 5883 5880 5876 5873 5870 5866 5862 5858 5853 5849 5844 5839 5834 5829 5823 5818 5813 5807 5802 5796 5791 5785 5779 5774 5769 5764 5759 5754 5750 5745
5893 5894 5895 5895 5894 5895 5895 5894 5892 5892 5890 5888 5886 5884 5882 5879 5876 5874 5870 5866 5862 5858 5854 5850 5846 5841 5836 5831 5826 5821 5816 5811 5805 5800 5795 5789 5783 5778 5773 5768 5763 5758 5754 5749
5891 5892 5892 5892 5892 5892 5892 5891 5891 5891 5890 5887 5885 5883 5880 5878 5876 5873 5869 5866 5862 5859 5855 5851 5847 5842 5838 5834 5829 5824 5819 5814 5809 5804 5799 5793 5788 5782 5777 5772 5767 5762 5758 5753
5888 5889 5889 5889 5889 5891 5889 5888 5888 5887 5886 5884 5883 5881 5879 5876 5874 5871 5868 5865 5862 5859 5855 5852 5848 5844 5840 5835 5831 5826 5822 5817 5812 5807 5802 5797 5792 5787 5782 5777 5772 5767 5762 5758
5885 5886 5886 5886 5887 5886 5885 5885 5885 5884 5883 5881 5880 5878 5877 5875 5872 5870 5867 5864 5861 5858 5855 5852 5848 5845 5841 5837 5833 5829 5824 5820 5815 5811 5806 5801 5796 5791 5786 5781 5776 5772 5767 5763
5881 5881 5881 5881 5882 5882 5881 5881 5881 5880 5879 5878 5877 5876 5874 5872 5870 5868 5865 5863 5860 5857 5854 5851 5848 5845 5841 5838 5834 5830 5826 5822 5818 5813 5809 5804 5800 5795 5790 5785 5781 5776 5772 5768
5875 5875 5876 5876 5877 5877 5877 5876 5876 5875 5875 5874 5873 5872 5870 5869 5867 5865 5863 5860 5858 5855 5853 5850 5847 5844 5841 5838 5834 5831 5827 5823 5819 5815 5811 5807 5803 5798 5794 5789 5785 5781 5777 5773
5869 5870 5871 5872 5872 5872 5872 5871 5871 5871 5870 5869 5868 5867 5866 5865 5863 5861 5859 5857 5855 5853 5850 5848 5845 5843 5840 5837 5834 5830 5827 5824 5820 5816 5813 5809 5805 5801 5797 5793 5789 5785 5781 5777